• In Uzbekistan
  • List of Countries
  • For 7 days
  • Water Temperature
  • Satellite Maps
  • Weather Map
  • Weather Widgets
  • user-avatar
    Login

    Hourly Weather Maseru

    Today, 17 October, Tuesday

    Time Temperature Precipitation Wind Pressure Humidity
    00:00 +9°C° 0 mm 3 mps 632 mmHg 25%
    01:00 +8°C° 0 mm 2 mps 632 mmHg 27%
    02:00 +7°C° 0 mm 2 mps 631 mmHg 28%
    03:00 +7°C° 0 mm 2 mps 631 mmHg 31%
    04:00 +6°C° 0 mm 2 mps 631 mmHg 34%
    05:00 +6°C° 0 mm 1 mps 631 mmHg 38%
    06:00 +6°C° 0 mm 2 mps 631 mmHg 36%
    07:00 +8°C° 0 mm 3 mps 632 mmHg 34%
    08:00 +8°C° 0 mm 5 mps 632 mmHg 36%
    09:00 +9°C° 0 mm 6 mps 633 mmHg 33%
    10:00 +11°C° 0 mm 6 mps 633 mmHg 30%
    11:00 +12°C° 0 mm 7 mps 634 mmHg 26%
    12:00 +14°C° 0 mm 7 mps 634 mmHg 25%
    13:00 +15°C° 0 mm 8 mps 634 mmHg 24%
    14:00 +15°C° 0 mm 7 mps 634 mmHg 26%
    15:00 +15°C° 0 mm 7 mps 634 mmHg 26%
    16:00 +15°C° 0 mm 6 mps 634 mmHg 26%
    17:00 +14°C° 0 mm 6 mps 634 mmHg 26%
    18:00 +13°C° 0 mm 5 mps 634 mmHg 29%
    19:00 +12°C° 0 mm 3 mps 634 mmHg 32%
    20:00 +10°C° 0 mm 2 mps 634 mmHg 35%
    21:00 +10°C° 0 mm 1 mps 634 mmHg 37%
    22:00 +10°C° 0 mm 1 mps 634 mmHg 40%
    23:00 +9°C° 0 mm 1 mps 634 mmHg 42%

    Tomorrow, 18 October, Wednesday

    Time Temperature Precipitation Wind Pressure Humidity
    00:00 +8°C° 0 mm 1 mps 634 mmHg 44%
    01:00 +7°C° 0 mm 0 mps 634 mmHg 46%
    02:00 +6°C° 0 mm 0 mps 633 mmHg 49%
    03:00 +6°C° 0 mm 0 mps 633 mmHg 49%
    04:00 +5°C° 0 mm 0 mps 633 mmHg 50%
    05:00 +5°C° 0 mm 0 mps 633 mmHg 51%
    06:00 +7°C° 0 mm 0 mps 633 mmHg 44%
    07:00 +10°C° 0 mm 0 mps 634 mmHg 36%
    08:00 +12°C° 0 mm 0 mps 635 mmHg 29%
    09:00 +16°C° 0 mm 1 mps 636 mmHg 25%
    10:00 +19°C° 0 mm 1 mps 636 mmHg 20%
    11:00 +21°C° 0 mm 1 mps 636 mmHg 16%
    12:00 +21°C° 0 mm 2 mps 636 mmHg 14%
    13:00 +24°C° 0 mm 3 mps 635 mmHg 13%
    14:00 +25°C° 0 mm 3 mps 635 mmHg 11%
    15:00 +25°C° 0 mm 4 mps 635 mmHg 12%
    16:00 +25°C° 0 mm 4 mps 634 mmHg 12%
    17:00 +25°C° 0 mm 4 mps 634 mmHg 13%
    18:00 +22°C° 0 mm 3 mps 633 mmHg 15%
    19:00 +20°C° 0 mm 3 mps 633 mmHg 18%
    20:00 +17°C° 0 mm 2 mps 632 mmHg 21%
    21:00 +17°C° 0 mm 2 mps 632 mmHg 20%
    22:00 +17°C° 0 mm 2 mps 632 mmHg 20%
    23:00 +16°C° 0 mm 2 mps 632 mmHg 20%

    Day after tomorrow, 19 October, Thursday

    Time Temperature Precipitation Wind Pressure Humidity
    00:00 +16°C° 0 mm 2 mps 632 mmHg 20%
    01:00 +15°C° 0 mm 2 mps 632 mmHg 20%
    02:00 +15°C° 0 mm 2 mps 631 mmHg 20%
    03:00 +15°C° 0 mm 2 mps 631 mmHg 20%
    04:00 +14°C° 0 mm 2 mps 631 mmHg 20%
    05:00 +14°C° 0 mm 2 mps 630 mmHg 21%
    06:00 +16°C° 0 mm 3 mps 632 mmHg 21%
    07:00 +18°C° 0 mm 3 mps 633 mmHg 20%
    08:00 +21°C° 0 mm 4 mps 634 mmHg 20%
    09:00 +22°C° 0 mm 5 mps 634 mmHg 19%
    10:00 +24°C° 0 mm 6 mps 634 mmHg 17%
    11:00 +27°C° 0 mm 7 mps 635 mmHg 16%
    12:00 +27°C° 0 mm 8 mps 635 mmHg 15%
    13:00 +28°C° 0 mm 8 mps 634 mmHg 13%
    14:00 +29°C° 0 mm 8 mps 634 mmHg 12%
    15:00 +28°C° 0 mm 8 mps 634 mmHg 13%
    16:00 +27°C° 0 mm 7 mps 634 mmHg 13%
    17:00 +27°C° 0 mm 7 mps 633 mmHg 13%
    18:00 +23°C° 0 mm 5 mps 633 mmHg 16%
    19:00 +21°C° 0 mm 4 mps 633 mmHg 18%
    20:00 +19°C° 0 mm 3 mps 633 mmHg 20%
    21:00 +18°C° 0 mm 2 mps 633 mmHg 23%
    22:00 +16°C° 0 mm 1 mps 634 mmHg 25%
    23:00 +15°C° 0 mm 1 mps 634 mmHg 28%

    20 October, Friday

    Time Temperature Precipitation Wind Pressure Humidity
    00:00 +15°C° 0 mm 1 mps 633 mmHg 29%
    01:00 +14°C° 0 mm 1 mps 633 mmHg 30%
    02:00 +13°C° 0 mm 1 mps 633 mmHg 32%
    03:00 +13°C° 0 mm 1 mps 633 mmHg 33%
    04:00 +12°C° 0 mm 1 mps 633 mmHg 34%
    05:00 +11°C° 0 mm 0 mps 633 mmHg 36%
    06:00 +14°C° 0 mm 1 mps 634 mmHg 32%
    07:00 +18°C° 0 mm 1 mps 635 mmHg 28%
    08:00 +19°C° 0 mm 2 mps 636 mmHg 24%
    09:00 +21°C° 0 mm 3 mps 637 mmHg 21%
    10:00 +22°C° 0 mm 3 mps 637 mmHg 18%
    11:00 +25°C° 0 mm 4 mps 637 mmHg 15%
    12:00 +26°C° 0 mm 6 mps 637 mmHg 14%
    13:00 +27°C° 0 mm 7 mps 637 mmHg 13%
    14:00 +28°C° 0 mm 8 mps 636 mmHg 12%
    15:00 +27°C° 0 mm 8 mps 636 mmHg 12%
    16:00 +26°C° 0 mm 8 mps 636 mmHg 13%
    17:00 +26°C° 0 mm 7 mps 636 mmHg 13%
    18:00 +23°C° 0 mm 6 mps 636 mmHg 15%
    19:00 +21°C° 0 mm 4 mps 636 mmHg 17%
    20:00 +18°C° 0 mm 2 mps 636 mmHg 19%
    21:00 +18°C° 0 mm 2 mps 636 mmHg 19%
    22:00 +17°C° 0 mm 2 mps 636 mmHg 19%
    23:00 +16°C° 0 mm 2 mps 636 mmHg 20%

    21 October, Saturday

    Time Temperature Precipitation Wind Pressure Humidity
    00:00 +15°C° 0 mm 1 mps 636 mmHg 21%
    01:00 +14°C° 0 mm 1 mps 636 mmHg 22%
    02:00 +13°C° 0 mm 1 mps 636 mmHg 23%
    03:00 +13°C° 0 mm 1 mps 636 mmHg 24%
    04:00 +13°C° 0 mm 1 mps 636 mmHg 25%
    05:00 +12°C° 0 mm 1 mps 636 mmHg 25%
    06:00 +15°C° 0 mm 1 mps 637 mmHg 23%
    07:00 +19°C° 0 mm 1 mps 638 mmHg 21%
    08:00 +22°C° 0 mm 1 mps 640 mmHg 18%
    09:00 +23°C° 0 mm 2 mps 640 mmHg 18%
    10:00 +25°C° 0 mm 3 mps 640 mmHg 17%
    11:00 +27°C° 0 mm 4 mps 640 mmHg 17%
    12:00 +28°C° 0 mm 4 mps 640 mmHg 16%
    13:00 +29°C° 0 mm 4 mps 640 mmHg 15%
    14:00 +30°C° 0 mm 5 mps 639 mmHg 14%
    15:00 +29°C° 0 mm 5 mps 639 mmHg 14%
    16:00 +29°C° 0 mm 5 mps 639 mmHg 13%
    17:00 +29°C° 0 mm 5 mps 639 mmHg 13%
    18:00 +26°C° 0 mm 4 mps 639 mmHg 14%
    19:00 +24°C° 0 mm 3 mps 638 mmHg 15%
    20:00 +20°C° 0 mm 2 mps 638 mmHg 16%
    21:00 +19°C° 0 mm 2 mps 638 mmHg 20%
    22:00 +18°C° 0 mm 2 mps 638 mmHg 24%
    23:00 +17°C° 0 mm 2 mps 638 mmHg 28%

    22 October, Sunday

    Time Temperature Precipitation Wind Pressure Humidity
    00:00 +17°C° 0 mm 2 mps 638 mmHg 39%
    01:00 +17°C° 0 mm 2 mps 638 mmHg 50%
    02:00 +16°C° 0 mm 3 mps 638 mmHg 61%
    03:00 +16°C° 0 mm 2 mps 638 mmHg 64%
    04:00 +16°C° 0 mm 2 mps 638 mmHg 67%
    05:00 +15°C° 0 mm 2 mps 638 mmHg 69%
    06:00 +17°C° 0 mm 3 mps 639 mmHg 66%
    07:00 +19°C° 0 mm 4 mps 639 mmHg 63%
    08:00 +21°C° 0 mm 5 mps 640 mmHg 60%
    09:00 +23°C° 0 mm 5 mps 640 mmHg 56%
    10:00 +24°C° 0 mm 6 mps 640 mmHg 52%
    11:00 +27°C° 0 mm 7 mps 640 mmHg 47%
    12:00 +27°C° 0.2 mm 6 mps 640 mmHg 42%
    13:00 +28°C° 0.2 mm 6 mps 639 mmHg 37%
    14:00 +29°C° 0.2 mm 5 mps 639 mmHg 32%
    15:00 +29°C° 0 mm 5 mps 639 mmHg 32%
    16:00 +28°C° 0 mm 4 mps 638 mmHg 32%
    17:00 +28°C° 0 mm 4 mps 638 mmHg 33%
    18:00 +26°C° 0.1 mm 4 mps 638 mmHg 38%
    19:00 +25°C° 0.1 mm 3 mps 638 mmHg 44%
    20:00 +22°C° 0.1 mm 3 mps 638 mmHg 50%
    21:00 +21°C° 0.4 mm 3 mps 638 mmHg 57%
    22:00 +20°C° 0.4 mm 2 mps 638 mmHg 65%
    23:00 +19°C° 0.4 mm 2 mps 637 mmHg 72%
    Show more